International Skating Union - Official Site

Essent ISU World Cup Heerenveen
November 12-14, 2010

Draw | Lap Times | Index | World Cup

Referee: Jan  BOLT  (NED)
Starter: Franco  CESCHI  (ITA)
StartTime: EndTime: Air Temp: Ice Temp: Humidity:
15:15
Result 3000m Ladies Division A
Rankings as of Nov 14 2010 9:34AM
Rank: No.: Name: Nation: Time: Behind: Points:
1 24 Stephanie  BECKERT GER GER 4:04.38200m - 20.67 - (20.6)
600m - 52.17 - (31.5)
1000m - 1:23.47 - (31.3)
1400m - 1:55.10 - (31.6)
1800m - 2:27.01 - (31.9)
2200m - 2:59.29 - (32.2)
2600m - 3:31.98 - (32.7)
3000m - 4:04.38 - (32.4)
100
2 7 Cindy  KLASSEN CAN CAN 4:07.19200m - 20.07 - (20.0)
600m - 51.00 - (30.9)
1000m - 1:23.04 - (32.0)
1400m - 1:55.19 - (32.1)
1800m - 2:27.15 - (31.9)
2200m - 2:59.47 - (32.3)
2600m - 3:32.51 - (33.0)
3000m - 4:07.19 - (34.6)
2.81 80
3 6 Kristina  GROVES CAN CAN 4:08.01200m - 19.99 - (20.0)
600m - 50.89 - (30.9)
1000m - 1:22.73 - (31.8)
1400m - 1:54.68 - (31.9)
1800m - 2:27.27 - (32.6)
2200m - 3:00.29 - (33.0)
2600m - 3:33.89 - (33.6)
3000m - 4:08.01 - (34.1)
3.63 70
4 70 Ireen  WÜST NED NED 4:08.11200m - 19.93 - (19.9)
600m - 50.33 - (30.4)
1000m - 1:21.83 - (31.5)
1400m - 1:54.41 - (32.5)
1800m - 2:27.23 - (32.8)
2200m - 3:00.15 - (32.9)
2600m - 3:33.70 - (33.5)
3000m - 4:08.11 - (34.4)
3.73 60
5 8 Christine  NESBITT CAN CAN 4:08.78200m - 19.55 - (19.5)
600m - 50.19 - (30.6)
1000m - 1:21.59 - (31.4)
1400m - 1:53.55 - (31.9)
1800m - 2:26.21 - (32.6)
2200m - 2:59.55 - (33.3)
2600m - 3:33.66 - (34.1)
3000m - 4:08.78 - (35.1)
4.40 50
6 10 Brittany  SCHUSSLER CAN CAN 4:08.95200m - 20.61 - (20.6)
600m - 51.88 - (31.2)
1000m - 1:23.97 - (32.0)
1400m - 1:56.32 - (32.3)
1800m - 2:28.83 - (32.5)
2200m - 3:02.00 - (33.1)
2600m - 3:35.27 - (33.2)
3000m - 4:08.95 - (33.6)
4.57 45
7 93 Jilleanne  ROOKARD USA USA 4:09.76200m - 20.07 - (20.0)
600m - 51.24 - (31.1)
1000m - 1:23.14 - (31.9)
1400m - 1:55.99 - (32.8)
1800m - 2:28.88 - (32.8)
2200m - 3:02.09 - (33.2)
2600m - 3:35.73 - (33.6)
3000m - 4:09.76 - (34.0)
5.38 40
8 36 Eriko  ISHINO JPN JPN 4:10.65200m - 20.70 - (20.7)
600m - 52.45 - (31.7)
1000m - 1:24.44 - (31.9)
1400m - 1:56.89 - (32.4)
1800m - 2:29.73 - (32.8)
2200m - 3:02.87 - (33.1)
2600m - 3:36.54 - (33.6)
3000m - 4:10.65 - (34.1)
6.27 36
9 37 Shiho  ISHIZAWA JPN JPN 4:11.72200m - 20.61 - (20.6)
600m - 52.33 - (31.7)
1000m - 1:24.59 - (32.2)
1400m - 1:57.63 - (33.0)
1800m - 2:30.68 - (33.0)
2200m - 3:04.48 - (33.8)
2600m - 3:37.94 - (33.4)
3000m - 4:11.72 - (33.7)
7.34 32
10 77 Luiza  ZLOTKOWSKA POL POL 4:11.83200m - 20.40 - (20.3)
600m - 52.12 - (31.7)
1000m - 1:24.87 - (32.7)
1400m - 1:57.41 - (32.5)
1800m - 2:30.50 - (33.0)
2200m - 3:03.75 - (33.2)
2600m - 3:37.87 - (34.1)
3000m - 4:11.83 - (33.9)
7.45 28
11 69 Jorien  VOORHUIS NED NED 4:11.84200m - 20.21 - (20.2)
600m - 51.94 - (31.7)
1000m - 1:25.60 - (33.6)
1400m - 1:59.07 - (33.4)
1800m - 2:32.21 - (33.1)
2200m - 3:05.28 - (33.0)
2600m - 3:38.49 - (33.2)
3000m - 4:11.84 - (33.3)
7.46 24
12 60 Marije  JOLING NED NED 4:12.37200m - 19.86 - (19.8)
600m - 51.57 - (31.7)
1000m - 1:24.04 - (32.4)
1400m - 1:56.73 - (32.6)
1800m - 2:29.84 - (33.1)
2200m - 3:03.27 - (33.4)
2600m - 3:37.63 - (34.3)
3000m - 4:12.37 - (34.7)
7.99 21
13 23 Jennifer  BAY GER GER 4:12.74200m - 20.38 - (20.3)
600m - 51.02 - (30.6)
1000m - 1:23.33 - (32.3)
1400m - 1:56.24 - (32.9)
1800m - 2:29.99 - (33.7)
2200m - 3:04.05 - (34.0)
2600m - 3:38.66 - (34.6)
3000m - 4:12.74 - (34.0)
8.36 18
14 20 Cathrine  GRAGE DEN DEN 4:13.62200m - 21.66 - (21.6)
600m - 53.69 - (32.0)
1000m - 1:26.34 - (32.6)
1400m - 1:59.32 - (32.9)
1800m - 2:32.37 - (33.0)
2200m - 3:05.60 - (33.2)
2600m - 3:39.34 - (33.7)
3000m - 4:13.62 - (34.2)
9.24 16
15 72 Maren  HAUGLI NOR NOR 4:13.86200m - 20.10 - (20.1)
600m - 51.25 - (31.1)
1000m - 1:23.19 - (31.9)
1400m - 1:55.92 - (32.7)
1800m - 2:29.03 - (33.1)
2200m - 3:03.24 - (34.2)
2600m - 3:38.12 - (34.8)
3000m - 4:13.86 - (35.7)
9.48 14
16 35 Masako  HOZUMI JPN JPN 4:14.03200m - 20.27 - (20.2)
600m - 51.38 - (31.1)
1000m - 1:23.07 - (31.6)
1400m - 1:55.14 - (32.0)
1800m - 2:28.32 - (33.1)
2200m - 3:02.38 - (34.0)
2600m - 3:37.89 - (35.5)
3000m - 4:14.03 - (36.1)
9.65 12
17 29 Isabell  OST GER GER 4:14.28200m - 20.68 - (20.6)
600m - 52.91 - (32.2)
1000m - 1:26.00 - (33.0)
1400m - 1:59.17 - (33.1)
1800m - 2:32.58 - (33.4)
2200m - 3:06.01 - (33.4)
2600m - 3:39.90 - (33.9)
3000m - 4:14.28 - (34.3)
9.90 10
18 61 Moniek  KLEINSMAN NED NED 4:15.34200m - 20.65 - (20.6)
600m - 52.24 - (31.5)
1000m - 1:24.75 - (32.5)
1400m - 1:57.78 - (33.0)
1800m - 2:31.34 - (33.5)
2200m - 3:05.62 - (34.2)
2600m - 3:40.23 - (34.6)
3000m - 4:15.34 - (35.1)
10.96 8
19 39 Ayaka  KIKUCHI JPN JPN 4:17.10200m - 20.56 - (20.5)
600m - 52.52 - (31.9)
1000m - 1:25.02 - (32.5)
1400m - 1:58.26 - (33.2)
1800m - 2:32.27 - (34.0)
2200m - 3:06.62 - (34.3)
2600m - 3:41.66 - (35.0)
3000m - 4:17.10 - (35.4)
12.72 6
20 53 Do-Yeong  PARK KOR KOR 4:17.72200m - 20.48 - (20.4)
600m - 52.39 - (31.9)
1000m - 1:24.32 - (31.9)
1400m - 1:57.29 - (32.9)
1800m - 2:30.97 - (33.6)
2200m - 3:05.82 - (34.8)
2600m - 3:41.15 - (35.3)
3000m - 4:17.72 - (36.5)
13.34 5
21 67 Irene  SCHOUTEN NED NED 4:18.57200m - 20.27 - (20.2)
600m - 53.00 - (32.7)
1000m - 1:26.25 - (33.2)
1400m - 1:59.73 - (33.4)
1800m - 2:33.46 - (33.7)
2200m - 3:08.09 - (34.6)
2600m - 3:43.34 - (35.2)
3000m - 4:18.57 - (35.2)
14.19 4
22 15 Fei  WANG CHN CHN 4:18.76200m - 20.64 - (20.6)
600m - 52.62 - (31.9)
1000m - 1:25.91 - (33.2)
1400m - 1:59.54 - (33.6)
1800m - 2:33.61 - (34.0)
2200m - 3:08.37 - (34.7)
2600m - 3:43.42 - (35.0)
3000m - 4:18.76 - (35.3)
14.38 3
23 1 Anna  ROKITA AUT AUT 4:21.45200m - 20.61 - (20.6)
600m - 52.47 - (31.8)
1000m - 1:25.08 - (32.6)
1400m - 1:58.97 - (33.8)
1800m - 2:33.40 - (34.4)
2200m - 3:08.87 - (35.4)
2600m - 3:44.74 - (35.8)
3000m - 4:21.45 - (36.7)
17.07 2
24 18 Martina  SÁBLIKOVÁ CZE CZE DNS 0